Portada
METAR-TAF:

METAR-TAF

Aeroports :

San Juan de Pasto, Colòmbia

latitud: 01-25N, longitud: 077-16W, altitud: 1826 m

Observació

L'informe es va fer fa 5 hores i 10 minuts, a les 23:00 UTC
Vent 6 kt del Nord
Temperatura 18°C
Humitat 83%
Pressió 1020 hPa
Visibilitat 10 km o més
Cel ennuvolat a una alçada de 1400 ft

METAR: SKPS 282300Z 35006KT 9999 BKN014 18/15 Q1020 RMK A3012

Hora: 23:10 (04:10 UTC)


TAF: manca

Observacions i pronòstics meteorològics de més de 4000 aeroports (METAR i TAF).

Les estacions disponibles són els punts grocs i vermells al mapa.

Posi el ratolí al punt desitjat per veure el nom de l'estació.

Feu clic per veure les observacions i els pronòstics meteorològics.

Per canviar el mapa: feu clic els botons verds amb una creu de color negre per apropar; al botó verd amb un guió per allunyar la imatge; o en les fletxes verdes per a mapes adjacents.


METAR-TAF: